Погода в Шангале

Россия / Ставропольский край     45°31′20″N   42°40′27″E
темп.,
°C
ветер,
м/с
пор.,
м/с
влажн.,
%
обл.,
%
осадки,
мм/ч
давл.,
гПа
погр.,
м
15 августа, пн
пн1500:00+27вюв7153011 0.0 1006524
03:00+24вюв410411 0.0 1006291
06:00+23в311470 0.0 1007296
09:00+31вюв9143099 0.0 10061258
12:00+35вюв9111947 0.0 10061872
15:00+38вюв9101599 0.1 10042721
18:00+37в912175 0.0 10041409
21:00+31в10172386 0.0 1006668
16 августа, вт
вт1600:00+28в716330 0.0 1007709
03:00+26в614370 0.0 1007515
06:00+24в38430 0.0 1008238
09:00+30вюв34352 0.0 10091071
12:00+35в332563 0.0 10081515
15:00+38сз23195 0.0 10062443
18:00+36зсз66240 0.1 1006482
21:00+30зсз714330 0.1 1007374
17 августа, ср
ср1700:00+27зсз611390 0.0 1008249
03:00+24з611550 0.0 1009273
06:00+23з59730 0.0 1009280
09:00+29зсз67469 0.0 1009684
12:00+35сз54324 0.0 10081606
15:00+37ссз42270 0.0 10072448
18:00+36ссз322811 0.0 10062610
21:00+30с334095 0.2 100736
18 августа, чт
чт1800:00+26сз345777 1.2 100750
03:00+23з2273100 6.1 100853
06:00+22зсз597646 0.2 1008215
09:00+28сз555392 0.9 1009588
12:00+32ссз44390 2.1 10081192
15:00+35с44311 2.3 10061906
18:00+31з4543100 0.6 1006192
21:00+22зсз91688100 3.8 1009608
19 августа, пт
пт1900:00+23з2376100 0.6 100887
03:00+21зсз47860 0.6 1008198
06:00+21зсз478538 0.0 1009246
09:00+25сз3460100 0.0 1010569
12:00+30св3441100 0.5 1009985
15:00+32в4433100 0.9 10081089
18:00+31вюв4740100 1.1 1008409
21:00+25в61445100 1.8 1010422